Regional Weather Roundup
Issued by NWS Columbia, SC

Home | Current Version | Previous Version | Text Only | Print | Product List | Glossary On
Versions: 1 2 3 4 5 6 7 8 9 10 11 12 13 14 15 16 17 18 19 20 21 22 23 24 25 26 27
000
ASUS42 KCAE 250410
RWRCAE
REGIONAL WEATHER ROUNDUP
NATIONAL WEATHER SERVICE COLUMBIA SC
1200 AM EDT MON JUL 25 2016

NOTE: "FAIR" INDICATES FEW OR NO CLOUDS BELOW 12,000 FEET WITH NO
SIGNIFICANT WEATHER AND/OR OBSTRUCTIONS TO VISIBILITY.

NOT ALL STATIONS ARE QUALITY CONTROLLED BY THE NATIONAL
WEATHER SERVICE. USE DATA WITH CAUTION...ESPECIALLY
DEWPOINT OBSERVATIONS.

SCZ001>056-GAZ040-063>065-077-250500-
...UPSTATE SOUTH CAROLINA...

CITY           SKY/WX    TMP DP  RH WIND       PRES   REMARKS
ANDERSON       CLEAR     82  71  69 CALM      30.05S
LIBERTY        CLOUDY    74  73  96 CALM      30.05F
SPARTANBURG    CLOUDY    81  70  69 W3        30.05S
CLEMSON        CLEAR     83  70  64 CALM      30.06F
GREENVILLE     CLOUDY    85  68  56 CALM      30.07S
GREENWOOD      PTCLDY    82  68  62 SW8       30.06S
GREER          CLOUDY    82  70  66 SW3       30.05S
ROCK HILL      PTCLDY    82  71  69 S6        30.06S
CHESTER        CLEAR     81  70  69 S3        30.06S
LAURENS        CLEAR     81  72  74 SW5       30.05S


...CENTRAL SOUTH CAROLINA...

CITY           SKY/WX    TMP DP  RH WIND       PRES   REMARKS
COLUMBIA APT   CLEAR     85  73  67 SW6       30.04S
COLUMBIA OWENS CLEAR     83  75  77 CALM        N/A
MCENTIRE ANGB  PTCLDY    79  76  92 CALM      30.05S
ORANGEBURG     CLEAR     81  75  82 S6        30.06R
SUMTER SHAW    CLEAR     81  75  82 S5        30.03S
NEWBERRY       CLEAR     81  72  74 S3        30.08R
AIKEN          FAIR      79  72  78 S6        30.09S
MANNING        FAIR      81  73  78 S6        30.05S
LANCASTER      CLEAR     81  73  78 S6        30.05S
WINNSBORO      CLEAR     81  72  74 SE6       30.05S


...EASTERN AND COASTAL SOUTH CAROLINA...

CITY           SKY/WX    TMP DP  RH WIND       PRES   REMARKS
MYRTLE BEACH   CLEAR     82  72  69 SW6       30.07S
N MYRTLE BCH   CLEAR     83  77  82 SW9       30.06R
CONWAY         FAIR      77  77 100 CALM      30.06S
MARION           N/A     79  75  89 S3        30.05S
HARTSVILLE     FAIR      79  73  83 S3        30.05S
FLORENCE       PTCLDY    81  76  84 S7        30.06R
DARLINGTON     CLEAR     81  76  84 S6        30.06R
CHARLESTON APT PTCLDY    80  75  84 S5        30.06R
MOUNT PLEASANT FAIR      79  77  94 CALM      30.06S
WALTERBORO     CLEAR     81  79  94 S3        30.07S
BEAUFORT       CLEAR     84  75  74 S3        30.06R


...EASTERN GEORGIA...

CITY           SKY/WX    TMP DP  RH WIND       PRES   REMARKS
AUGUSTA BUSH F CLEAR     78  73  84 S3        30.04S
AUGUSTA DANIEL CLEAR     85  72  65 S5        30.06S
WASHINGTON     FAIR      82  77  83 S3        30.05S
CLAXTON        FAIR      76  75  97 CALM      30.08R
STATESBORO     CLEAR     78  75  92 CALM      30.07R
SAVANNAH       CLEAR     80  74  81 S5        30.07R


...SOUTHERN NORTH CAROLINA...

CITY           SKY/WX    TMP DP  RH WIND       PRES   REMARKS
CHARLOTTE      PTCLDY    83  70  64 S6        30.05S
MONROE         CLEAR     81  71  71 S5        30.05S
ROCKINGHAM     PTCLDY    81  77  89 S5        30.05S
RUTHERFORDTON    N/A     78  76  92 CALM      30.07F
ASHEVILLE      PTCLDY    75  69  81 VRB3      30.15S

$$




USA.gov is the U.S. government's official web portal to all federal, state and local government web resources and services.